Showing default

COSMOS 2584(GLONASS), 63130

Orbit data source: Space-Track

COSMOS 2584(GLONASS), 63130 is a Commonwealth of Independent States-origin payload satellite in MEO that was launched on Sun, 02 Mar 2025 UTC via a SOYUZ-2-1B launch vehicle from the Plesetsk Missile And Space Complex (PKMTR). Payload-class satellites include a variety of spacecraft equipped with specific instruments for various scientific and technological missions. These include communications satellites like Starlink; space stations such as the ISS; scientific satellites like the Hubble; Earth observation satellites from companies like Planet Labs, Umbra, and HawkEye 360; GPS; miniature CubeSats for education and research; and military/defense satellites.

Loading next visibility...
Identifier
63130, 2025-042A
Orbit
MEO
Country
Flag of CISCIS
Related business
Manufacturer
Resehetnev ISS
Mission
Awaiting activation Defense Navigation
Bus & Motor
EKSPRESS-1000, AOCS
Mass
974 kg wet, ~800 kg dry
Launch date (UTC)
2025-03-02 (8 months ago)
Launch vehicle
SOYUZ-2-1B
Launch site
Plesetsk Missile And Space Complex (PKMTR)
Object type
Payload
Rocket body
Debris
Shape & HBR
Box + 2 Pan, 14.5 m
Radar Cross Section
3.585 m², Large (>1 m²)

Expand to show TLE details & history
Last TLE update: 17 hours ago

TLE from 17 hours ago
0 COSMOS 2584(GLONASS)
1 63130U 25042A   25309.77357532  .00000007  00000-0  00000-0 0  9991
2 63130  64.9562  80.4049 0007201 207.6156 152.3269  2.13103046  5282
Epoch: 2025-11-05T18:33Z
TLE epoch observation values (Epoch: 2025-11-05T18:33:56.907Z)
Latitude
-0.00002°
Longitude
116.66148°
Altitude
19,146.655 km
Speed
3.951 km/s
True Right ascension
05h 21m 33s
True Declination
0° 00' 00"
Sunlit
Object was in daylight at epoch
Visualization orbit readout
Latitude
Unknown
Longitude
Unknown
Altitude
Unknown
Speed
Unknown
Apparent Right ascension
Unknown
Apparent Declination
Unknown
Sunlit
N/A
Visualization observer readout
Local Sidereal Time
07:23:30
Azimuth
Unknown
Elevation
Unknown
Doppler factor
Unknown
Orbital elements
Apogee altitude
19,147.788 km
Perigee altitude
19,111.052 km
Semi-major axis
25,507.557 km
Eccentricity
0.00072
Inclination
64.9562°
RAAN
80.4049°
Arg. of periapsis
207.6156°
True anomaly
152.36519°
Mean anomaly
152.3269°
Eccentric anomaly
152.34605°
Mean motion
0.53277 °/min
Orbital period
675.71 mins
BSTAR
0
Loading maneuver chart data...
Computing Atmospheric mass density...
Loading historical data...
Loading historical data...
Loading historical data...
Loading historical data...
Loading historical data...
Loading historical data...
Loading historical data...
Other satellites on launch #42 in the year 2025 (2025-03-02 UTC)

Documentation

Showing up to 5 results
|